Location: Cactus School
(34.5700°N, 118.0931°W)
Time: 13:21:20
(UTC-07:00)

S-56A Canister/Altair - Pass Details

Date: 18 April 2024
Orbit: 638 x 2488 km, 38.9° (Epoch: 29 May)

Event Time Altitude Azimuth Distance (km) Brightness Sun altitude
Rises 16:45:09 0° 223° (SW) 2,984 11.3 32.3°
Reaches altitude 10° 16:47:21 10° 216° (SW) 2,157 10.6 31.8°
Maximum altitude 16:51:58 43° 145° (SE) 1,151 8.5 30.9°
Drops below altitude 10° 16:58:12 10° 76° (ENE) 2,909 10.0 29.6°
Sets 17:01:36 0° 70° (ENE) 4,166 10.8 28.9°
